| time (UTC) | temp F | wind direction | speed knots | gust knots | rain 1hr in | rain 24hr in | rain mn in | humidity % | barometer mb |
| 20260509021602 | 57 | 0 | 0.0 | 0.9 | 0.00 | 0.00 | 0.00 | 90 | 1016.3 |
| 20260509014617 | 57 | 0 | 0.0 | 0.0 | 0.00 | 0.00 | 0.00 | 90 | 1016.3 |
| 20260509013110 | 58 | 0 | 0.0 | 0.9 | 0.00 | 0.00 | 0.00 | 89 | 1016.1 |
| 20260509011605 | 58 | 0 | 0.0 | 0.0 | 0.00 | 0.00 | 0.00 | 88 | 1015.8 |
| 20260509004607 | 59 | 0 | 0.0 | 0.0 | 0.00 | 0.00 | 0.00 | 86 | 1015.9 |
| 20260509003133 | 60 | 0 | 0.0 | 1.7 | 0.00 | 0.00 | 0.00 | 85 | 1015.7 |
| 20260509001606 | 60 | 0 | 0.0 | 0.9 | 0.00 | 0.00 | 0.00 | 83 | 1015.6 |
| 20260509000113 | 62 | 0 | 0.0 | 0.9 | 0.00 | 0.00 | 0.00 | 81 | 1015.6 |
| 20260508234557 | 63 | 0 | 0.0 | 1.7 | 0.00 | 0.00 | 0.00 | 78 | 1015.5 |
| 20260508233100 | 64 | 167 | 0.0 | 3.5 | 0.00 | 0.00 | 0.00 | 70 | 1015.4 |
| 20260508231558 | 65 | 155 | 0.9 | 2.6 | 0.00 | 0.00 | 0.00 | 70 | 1015.4 |
| 20260508224606 | 65 | 165 | 0.0 | 3.5 | 0.00 | 0.00 | 0.00 | 69 | 1015.4 |
| 20260508223058 | 66 | 0 | 0.0 | 2.6 | 0.00 | 0.00 | 0.00 | 66 | 1015.5 |
| 20260508221600 | 66 | 171 | 0.0 | 3.5 | 0.00 | 0.00 | 0.00 | 65 | 1015.5 |
| 20260508220100 | 67 | 0 | 0.0 | 3.5 | 0.00 | 0.00 | 0.00 | 63 | 1015.4 |
| 20260508214558 | 67 | 0 | 0.0 | 4.3 | 0.00 | 0.00 | 0.00 | 63 | 1015.3 |
| 20260508213103 | 67 | 151 | 0.0 | 4.3 | 0.00 | 0.00 | 0.00 | 59 | 1015.3 |
| 20260508211559 | 67 | 198 | 1.7 | 7.0 | 0.00 | 0.00 | 0.00 | 57 | 1015.6 |
| 20260508210058 | 68 | 0 | 1.7 | 4.3 | 0.00 | 0.00 | 0.00 | 56 | 1015.5 |
| 20260508204556 | 68 | 156 | 0.9 | 5.2 | 0.00 | 0.00 | 0.00 | 58 | 1015.4 |
| 20260508203102 | 68 | 160 | 0.9 | 5.2 | 0.00 | 0.00 | 0.00 | 56 | 1015.4 |
| 20260508201612 | 68 | 172 | 2.6 | 5.2 | 0.00 | 0.00 | 0.00 | 56 | 1015.6 |
| 20260508200108 | 68 | 166 | 0.9 | 5.2 | 0.00 | 0.00 | 0.00 | 57 | 1015.8 |
| 20260508194601 | 68 | 163 | 2.6 | 7.0 | 0.00 | 0.00 | 0.00 | 55 | 1016.0 |
| 20260508193109 | 68 | 199 | 0.9 | 5.2 | 0.00 | 0.00 | 0.00 | 55 | 1016.3 |
| 20260508191557 | 67 | 165 | 2.6 | 7.8 | 0.00 | 0.00 | 0.00 | 55 | 1016.6 |
| 20260508190101 | 68 | 203 | 0.9 | 6.1 | 0.00 | 0.00 | 0.00 | 55 | 1016.6 |
| 20260508184610 | 69 | 160 | 0.9 | 8.7 | 0.00 | 0.00 | 0.00 | 56 | 1017.1 |
| 20260508183107 | 69 | 173 | 0.9 | 6.1 | 0.00 | 0.00 | 0.00 | 55 | 1017.0 |
| 20260508181600 | 68 | 180 | 0.9 | 4.3 | 0.00 | 0.00 | 0.00 | 56 | 1017.4 |
| 20260508180100 | 68 | 165 | 0.9 | 7.0 | 0.00 | 0.00 | 0.00 | 56 | 1017.5 |
| 20260508174605 | 69 | 0 | 1.7 | 7.8 | 0.00 | 0.00 | 0.00 | 59 | 1017.9 |
| 20260508173057 | 67 | 182 | 1.7 | 7.0 | 0.00 | 0.00 | 0.00 | 54 | 1017.8 |
| 20260508171600 | 67 | 167 | 1.7 | 6.1 | 0.00 | 0.00 | 0.00 | 56 | 1017.8 |
| 20260508170058 | 67 | 173 | 1.7 | 4.3 | 0.00 | 0.00 | 0.00 | 55 | 1017.8 |
| 20260508164604 | 68 | 164 | 1.7 | 6.1 | 0.00 | 0.00 | 0.00 | 55 | 1018.4 |
| 20260508163117 | 67 | 195 | 1.7 | 9.6 | 0.00 | 0.00 | 0.00 | 53 | 1018.6 |
| 20260508161558 | 66 | 192 | 0.0 | 7.8 | 0.00 | 0.00 | 0.00 | 54 | 1018.9 |
| 20260508160056 | 64 | 236 | 1.7 | 6.1 | 0.00 | 0.00 | 0.00 | 57 | 1019.1 |
| 20260508154600 | 64 | 256 | 0.9 | 6.1 | 0.00 | 0.00 | 0.00 | 58 | 1019.2 |
| 20260508153057 | 63 | 0 | 1.7 | 5.2 | 0.00 | 0.00 | 0.00 | 57 | 1019.4 |
| 20260508151559 | 64 | 0 | 0.0 | 4.3 | 0.00 | 0.00 | 0.00 | 58 | 1019.5 |
| 20260508150105 | 62 | 171 | 2.6 | 6.1 | 0.00 | 0.00 | 0.00 | 57 | 1019.4 |
| 20260508144602 | 62 | 160 | 0.0 | 3.5 | 0.00 | 0.00 | 0.00 | 60 | 1019.5 |
| 20260508143055 | 60 | 0 | 1.7 | 4.3 | 0.00 | 0.00 | 0.00 | 64 | 1019.6 |
| 20260508141601 | 60 | 164 | 0.9 | 3.5 | 0.00 | 0.00 | 0.00 | 65 | 1019.5 |
| 20260508140058 | 59 | 186 | 0.0 | 3.5 | 0.00 | 0.00 | 0.00 | 67 | 1019.7 |
| 20260508134602 | 59 | 259 | 0.9 | 2.6 | 0.00 | 0.00 | 0.00 | 62 | 1019.9 |
| 20260508133103 | 58 | 0 | 0.9 | 2.6 | 0.00 | 0.00 | 0.00 | 66 | 1019.8 |
| 20260508131559 | 57 | 298 | 0.0 | 2.6 | 0.00 | 0.00 | 0.00 | 72 | 1019.8 |
| 20260508130110 | 56 | 311 | 0.0 | 1.7 | 0.00 | 0.00 | 0.00 | 76 | 1019.7 |
| 20260508124558 | 54 | 0 | 0.0 | 0.9 | 0.00 | 0.00 | 0.00 | 85 | 1019.5 |
| 20260508123057 | 52 | 0 | 0.0 | 0.0 | 0.00 | 0.00 | 0.00 | 89 | 1019.3 |
| 20260508121557 | 50 | 0 | 0.0 | 0.0 | 0.00 | 0.00 | 0.00 | 91 | 1019.2 |
| 20260508114558 | 48 | 0 | 0.0 | 0.0 | 0.00 | 0.00 | 0.00 | 94 | 1018.8 |
| 20260508113059 | 47 | 0 | 0.0 | 0.0 | 0.00 | 0.00 | 0.00 | 94 | 1018.6 |
| 20260508111558 | 46 | 0 | 0.0 | 0.0 | 0.00 | 0.00 | 0.00 | 93 | 1018.2 |
| 20260508110128 | 46 | 0 | 0.0 | 0.0 | 0.00 | 0.00 | 0.00 | 93 | 1017.7 |
| 20260508104603 | 46 | 0 | 0.0 | 1.7 | 0.00 | 0.00 | 0.00 | 93 | 1017.7 |
| 20260508103058 | 46 | 0 | 0.0 | 0.9 | 0.00 | 0.00 | 0.00 | 94 | 1017.2 |
| 20260508101557 | 47 | 0 | 0.0 | 2.6 | 0.00 | 0.00 | 0.00 | 93 | 1017.3 |
| 20260508100059 | 46 | 0 | 0.0 | 0.0 | 0.00 | 0.00 | 0.00 | 94 | 1017.0 |
| 20260508094558 | 46 | 0 | 0.0 | 0.0 | 0.00 | 0.00 | 0.00 | 93 | 1016.6 |
| 20260508093106 | 47 | 0 | 0.0 | 0.0 | 0.00 | 0.00 | 0.00 | 93 | 1016.5 |
| 20260508091558 | 47 | 0 | 0.0 | 0.0 | 0.00 | 0.00 | 0.00 | 93 | 1016.4 |
| 20260508090109 | 47 | 0 | 0.0 | 0.0 | 0.00 | 0.00 | 0.00 | 93 | 1016.4 |
| 20260508084601 | 47 | 305 | 0.0 | 1.7 | 0.00 | 0.00 | 0.00 | 93 | 1016.1 |
| 20260508083056 | 47 | 0 | 0.0 | 1.7 | 0.00 | 0.00 | 0.00 | 92 | 1016.4 |
| 20260508081616 | 47 | 0 | 0.0 | 0.0 | 0.00 | 0.00 | 0.00 | 92 | 1016.2 |
| 20260508080058 | 48 | 0 | 0.0 | 1.7 | 0.00 | 0.00 | 0.00 | 92 | 1016.1 |
| 20260508074558 | 48 | 0 | 0.0 | 0.0 | 0.00 | 0.00 | 0.00 | 91 | 1016.2 |
| 20260508073058 | 49 | 0 | 0.0 | 0.0 | 0.00 | 0.00 | 0.00 | 91 | 1016.2 |
| 20260508071559 | 49 | 0 | 0.0 | 0.0 | 0.00 | 0.00 | 0.00 | 92 | 1016.1 |
| 20260508070108 | 49 | 0 | 0.0 | 1.7 | 0.00 | 0.00 | 0.00 | 91 | 1016.0 |
| 20260508064600 | 49 | 305 | 0.9 | 2.6 | 0.00 | 0.00 | 0.00 | 92 | 1015.9 |
| 20260508063110 | 49 | 0 | 0.0 | 0.0 | 0.00 | 0.00 | 0.00 | 92 | 1015.9 |
| 20260508061608 | 49 | 0 | 0.0 | 0.0 | 0.00 | 0.00 | 0.00 | 92 | 1015.9 |
| 20260508060108 | 50 | 0 | 0.0 | 0.0 | 0.00 | 0.00 | 0.00 | 91 | 1015.9 |
| 20260508054640 | 50 | 0 | 0.0 | 1.7 | 0.00 | 0.00 | 0.00 | 90 | 1015.8 |
| 20260508053108 | 51 | 0 | 0.0 | 2.6 | 0.00 | 0.00 | 0.00 | 90 | 1015.8 |
| 20260508051559 | 51 | 0 | 0.0 | 0.0 | 0.00 | 0.00 | 0.00 | 89 | 1016.0 |
| 20260508050059 | 51 | 0 | 0.0 | 0.0 | 0.00 | 0.00 | 0.00 | 88 | 1015.6 |
| 20260508044603 | 52 | 0 | 0.0 | 0.0 | 0.00 | 0.00 | 0.00 | 86 | 1015.8 |
| 20260508043058 | 53 | 0 | 0.0 | 0.9 | 0.00 | 0.00 | 0.00 | 84 | 1015.5 |
| 20260508041602 | 54 | 282 | 0.0 | 1.7 | 0.00 | 0.00 | 0.00 | 84 | 1015.5 |
| 20260508040109 | 54 | 0 | 0.0 | 0.0 | 0.00 | 0.00 | 0.00 | 83 | 1015.4 |
| 20260508034605 | 55 | 0 | 0.0 | 2.6 | 0.00 | 0.00 | 0.00 | 82 | 1015.2 |
| 20260508033101 | 56 | 0 | 0.0 | 1.7 | 0.00 | 0.00 | 0.00 | 80 | 1015.4 |
| 20260508031605 | 56 | 0 | 0.0 | 1.7 | 0.00 | 0.00 | 0.00 | 79 | 1015.2 |
| 20260508030115 | 56 | 321 | 0.0 | 2.6 | 0.00 | 0.00 | 0.00 | 78 | 1015.0 |
| 20260508024607 | 58 | 327 | 0.9 | 2.6 | 0.00 | 0.00 | 0.00 | 77 | 1014.9 |
| 20260508023103 | 58 | 325 | 0.9 | 3.5 | 0.00 | 0.00 | 0.00 | 73 | 1015.1 |